CW8078 Weather Reports


Display with metric or nautical units.
time (UTC)temp
F
wind
direction
speed
MPH
gust
MPH
rain 1hr
in
rain 24hr
in
rain mn
in
humidity
%
barometer
mb
20260831220302 96 175 0.0 0.0 0.00 0.00 0.00 46 1011.1
20260831214802 97 175 0.0 0.0 0.00 0.00 0.00 46 1011.1
20260831214303 97 122 0.0 0.0 0.00 0.00 0.00 41 1011.1
20260831213303 97 167 0.0 0.0 0.00 0.00 0.00 42 1011.0
20260831211803 97 136 0.0 0.0 0.00 0.00 0.00 43 1011.1
20260831210802 97 167 0.0 0.0 0.00 0.00 0.00 43 1011.1
20260831210302 97 149 0.0 0.0 0.00 0.00 0.00 43 1011.1
20260831204803 97 149 0.0 1.0 0.00 0.00 0.00 44 1011.2
20260831204303 97 181 0.0 0.0 0.00 0.00 0.00 44 1011.3
20260831203803 97 117 0.0 0.0 0.00 0.00 0.00 44 1011.3
20260831203303 97 165 0.0 0.0 0.00 0.00 0.00 43 1011.4
20260831201803 97 227 0.0 0.0 0.00 0.00 0.00 43 1011.4
20260831201303 98 227 0.0 0.0 0.00 0.00 0.00 43 1011.5
20260831200803 98 167 0.0 0.0 0.00 0.00 0.00 43 1011.6
20260831194803 98 171 0.0 0.0 0.00 0.00 0.00 43 1011.8
20260831193802 99 226 0.0 0.0 0.00 0.00 0.00 41 1011.9
20260831193302 99 225 0.0 0.0 0.00 0.00 0.00 42 1011.9
20260831191802 99 162 0.0 0.0 0.00 0.00 0.00 41 1012.1
20260831191303 99 127 0.0 0.0 0.00 0.00 0.00 43 1012.2
20260831190803 99 225 0.0 0.0 0.00 0.00 0.00 42 1012.2
20260831190302 98 238 0.0 0.0 0.00 0.00 0.00 45 1012.2
20260831184803 99 141 0.0 0.0 0.00 0.00 0.00 45 1012.3
20260831184303 99 125 0.0 0.0 0.00 0.00 0.00 41 1012.4
20260831183803 98 285 0.0 0.0 0.00 0.00 0.00 45 1012.4
20260831183303 99 184 0.0 0.0 0.00 0.00 0.00 44 1012.4
20260831181803 97 179 0.0 0.0 0.00 0.00 0.00 44 1012.5
20260831180802 97 188 0.0 0.0 0.00 0.00 0.00 42 1012.6
20260831180302 97 179 0.0 0.0 0.00 0.00 0.00 45 1012.7
20260831174803 97 239 0.0 0.0 0.00 0.00 0.00 47 1013.0
20260831174302 97 229 0.0 0.0 0.00 0.00 0.00 44 1013.0
20260831173802 96 178 0.0 0.0 0.00 0.00 0.00 48 1013.1
20260831173302 96 178 0.0 0.0 0.00 0.00 0.00 47 1013.1
20260831171303 95 146 0.0 0.0 0.00 0.00 0.00 48 1013.3
20260831170803 94 165 0.0 0.0 0.00 0.00 0.00 53 1013.4
20260831170306 94 196 0.0 0.0 0.00 0.00 0.00 51 1013.5
20260831164803 92 294 0.0 0.0 0.00 0.00 0.00 54 1013.6
20260831164303 91 136 0.0 0.0 0.00 0.00 0.00 55 1013.7
20260831163804 90 162 0.0 0.0 0.00 0.00 0.00 54 1013.6
20260831161803 89 167 0.0 0.0 0.00 0.00 0.00 56 1013.7
20260831161302 89 201 0.0 0.0 0.00 0.00 0.00 57 1013.7
20260831160802 88 166 0.0 0.0 0.00 0.00 0.00 59 1013.8
20260831154803 87 174 0.0 0.0 0.00 0.00 0.00 62 1013.8
20260831154303 87 198 0.0 0.0 0.00 0.00 0.00 62 1013.6
20260831153803 86 178 0.0 0.0 0.00 0.00 0.00 61 1013.6
20260831153303 85 176 0.0 0.0 0.00 0.00 0.00 63 1013.6
20260831151802 84 171 0.0 0.0 0.00 0.00 0.00 65 1013.6
20260831151303 83 169 0.0 0.0 0.00 0.00 0.00 66 1013.6
20260831150802 83 169 0.0 0.0 0.00 0.00 0.00 67 1013.6
20260831150303 83 174 0.0 1.0 0.00 0.00 0.00 65 1013.6
20260831144303 81 175 0.0 0.0 0.00 0.00 0.00 68 1013.7
20260831143802 80 181 0.0 0.0 0.00 0.00 0.00 68 1013.7
20260831143303 80 188 0.0 0.0 0.00 0.00 0.00 68 1013.7
20260831141303 78 104 0.0 0.0 0.00 0.00 0.00 72 1013.7
20260831140803 78 141 0.0 0.0 0.00 0.00 0.00 72 1013.6
20260831134302 75 134 0.0 0.0 0.00 0.00 0.00 73 1013.6
20260831133803 75 156 0.0 0.0 0.00 0.00 0.00 74 1013.7
20260831133303 74 155 0.0 0.0 0.00 0.00 0.00 74 1013.7
20260831131803 73 121 0.0 0.0 0.00 0.00 0.00 75 1013.5
20260831131303 73 179 0.0 0.0 0.00 0.00 0.00 77 1013.5
20260831130802 73 155 0.0 0.0 0.00 0.00 0.00 76 1013.5
20260831130303 72 156 0.0 1.0 0.00 0.00 0.00 76 1013.4
20260831123803 70 132 0.0 0.0 0.00 0.00 0.00 81 1013.2
20260831123303 70 132 0.0 0.0 0.00 0.00 0.00 81 1013.1
20260831121802 68 161 0.0 0.0 0.00 0.00 0.00 84 1012.9
20260831121303 68 161 0.0 0.0 0.00 0.00 0.00 85 1012.9
20260831120803 68 161 0.0 0.0 0.00 0.00 0.00 86 1012.9
20260831120303 67 161 0.0 0.0 0.00 0.00 0.00 85 1012.9
20260831114803 67 161 0.0 0.0 0.00 0.00 0.00 85 1012.7
20260831114303 68 161 0.0 0.0 0.00 0.00 0.00 85 1012.7
20260831113803 68 161 0.0 0.0 0.00 0.00 0.00 85 1012.7
20260831113303 68 161 0.0 0.0 0.00 0.00 0.00 85 1012.5
20260831111803 68 161 0.0 0.0 0.00 0.00 0.00 84 1012.6
20260831111303 68 161 0.0 0.0 0.00 0.00 0.00 85 1012.6
20260831110803 68 161 0.0 0.0 0.00 0.00 0.00 85 1012.5
20260831104803 69 161 0.0 0.0 0.00 0.00 0.00 84 1012.4
20260831104303 69 161 0.0 0.0 0.00 0.00 0.00 83 1012.3
20260831103803 69 161 0.0 0.0 0.00 0.00 0.00 83 1012.2
20260831103303 69 161 0.0 0.0 0.00 0.00 0.00 82 1012.2
20260831101803 69 161 0.0 0.0 0.00 0.00 0.00 81 1012.2
20260831100803 69 161 0.0 0.0 0.00 0.00 0.00 81 1012.1
20260831100303 69 161 0.0 0.0 0.00 0.00 0.00 81 1012.1
20260831093802 70 161 0.0 0.0 0.00 0.00 0.00 81 1012.1
20260831093303 70 161 0.0 0.0 0.00 0.00 0.00 80 1012.0
20260831091803 70 5 0.0 0.0 0.00 0.00 0.00 79 1012.1
20260831091302 70 3 0.0 0.0 0.00 0.00 0.00 79 1012.1
20260831090803 71 161 0.0 0.0 0.00 0.00 0.00 79 1012.0
20260831084803 71 161 0.0 0.0 0.00 0.00 0.00 78 1012.0
20260831083802 72 42 0.0 0.0 0.00 0.00 0.00 78 1012.0
20260831083304 72 0 0.0 0.0 0.00 0.00 0.00 76 1011.9
20260831081803 73 58 0.0 0.0 0.00 0.00 0.00 75 1011.8
20260831081303 73 159 0.0 0.0 0.00 0.00 0.00 75 1011.7
20260831080803 73 161 0.0 0.0 0.00 0.00 0.00 76 1011.6
20260831080304 74 161 0.0 0.0 0.00 0.00 0.00 75 1011.6
20260831074802 74 161 0.0 0.0 0.00 0.00 0.00 72 1011.7
20260831074303 75 161 0.0 0.0 0.00 0.00 0.00 72 1011.7
20260831073803 75 161 0.0 0.0 0.00 0.00 0.00 71 1011.7
20260831073303 75 161 0.0 0.0 0.00 0.00 0.00 72 1011.7
20260831071803 76 161 0.0 0.0 0.00 0.00 0.00 70 1011.8
20260831071305 76 161 0.0 0.0 0.00 0.00 0.00 70 1011.8
20260831070803 76 161 0.0 0.0 0.00 0.00 0.00 69 1011.8
20260831064803 77 161 0.0 0.0 0.00 0.00 0.00 67 1011.9
20260831063803 77 144 0.0 0.0 0.00 0.00 0.00 67 1012.0
20260831063303 77 144 0.0 0.0 0.00 0.00 0.00 68 1012.0
20260831061803 76 151 0.0 0.0 0.00 0.00 0.00 73 1012.1
20260831061303 76 120 0.0 0.0 0.00 0.00 0.00 69 1012.2
20260831060803 77 120 0.0 0.0 0.00 0.00 0.00 70 1012.1
20260831060303 77 120 0.0 0.0 0.00 0.00 0.00 70 1012.1
20260831054803 78 120 0.0 0.0 0.00 0.00 0.00 65 1012.0
20260831054303 78 120 0.0 0.0 0.00 0.00 0.00 67 1012.0
20260831053803 78 120 0.0 0.0 0.00 0.00 0.00 66 1012.0
20260831053303 79 120 0.0 0.0 0.00 0.00 0.00 66 1011.9
20260831051803 79 120 0.0 0.0 0.00 0.00 0.00 65 1011.7
20260831051303 79 120 0.0 0.0 0.00 0.00 0.00 66 1011.7
20260831050803 79 120 0.0 0.0 0.00 0.00 0.00 67 1011.6
20260831050303 79 140 0.0 0.0 0.00 0.00 0.00 67 1011.6
20260831044803 78 173 0.0 0.0 0.00 0.00 0.00 69 1011.5
20260831043803 78 173 0.0 0.0 0.00 0.00 0.00 69 1011.5
20260831041804 79 140 0.0 0.0 0.00 0.00 0.00 69 1011.6
20260831041303 79 123 0.0 0.0 0.00 0.00 0.00 69 1011.5
20260831040803 79 103 0.0 0.0 0.00 0.00 0.00 69 1011.5
20260831040303 79 129 0.0 0.0 0.00 0.00 0.00 69 1011.5
20260831034803 80 141 0.0 0.0 0.00 0.00 0.00 69 1011.5
20260831034303 80 155 0.0 0.0 0.00 0.00 0.00 69 1011.4
20260831033303 80 143 0.0 0.0 0.00 0.00 0.00 68 1011.4
20260831031303 81 140 0.0 0.0 0.00 0.00 0.00 68 1011.4
20260831030803 81 153 0.0 0.0 0.00 0.00 0.00 68 1011.3
20260831030303 81 153 0.0 0.0 0.00 0.00 0.00 68 1011.3
20260831024803 82 152 0.0 0.0 0.00 0.00 0.00 68 1011.2
20260831024303 82 144 0.0 0.0 0.00 0.00 0.00 68 1011.1
20260831023803 82 149 0.0 0.0 0.00 0.00 0.00 68 1011.1
20260831023303 82 152 0.0 0.0 0.00 0.00 0.00 67 1011.0
20260831021803 82 144 0.0 1.0 0.00 0.00 0.00 67 1011.0
20260831021303 83 144 0.0 0.0 0.00 0.00 0.00 67 1010.9
20260831020303 83 144 0.0 0.0 0.00 0.00 0.00 67 1010.8
20260831014803 83 143 0.0 0.0 0.00 0.00 0.00 67 1010.6
20260831014303 83 146 0.0 0.0 0.00 0.00 0.00 67 1010.5
20260831013803 84 146 0.0 0.0 0.00 0.00 0.00 67 1010.3
20260831011803 84 146 0.0 0.0 0.00 0.00 0.00 66 1010.3
20260831010303 85 146 0.0 0.0 0.00 0.00 0.00 64 1010.4
20260831004804 86 147 0.0 0.0 0.00 0.00 0.00 63 1010.3
20260831003804 86 151 0.0 0.0 0.00 0.00 0.00 62 1010.3
20260831003303 87 133 0.0 0.0 0.00 0.00 0.00 62 1010.3
20260831001804 88 130 0.0 0.0 0.00 0.00 0.00 61 1010.4
20260831001304 88 130 0.0 0.0 0.00 0.00 0.00 60 1010.4
20260831000803 88 135 0.0 0.0 0.00 0.00 0.00 59 1010.3
20260831000303 89 148 0.0 1.0 0.00 0.00 0.00 60 1010.3
20260830234803 89 142 0.0 0.0 0.00 0.00 0.00 57 1010.3
20260830234303 90 168 0.0 0.0 0.00 0.00 0.00 57 1010.3
20260830233803 90 168 0.0 0.0 0.00 0.00 0.00 56 1010.4
20260830233303 90 176 0.0 0.0 0.00 0.00 0.00 57 1010.4
20260830231803 90 180 0.0 0.0 0.00 0.00 0.00 56 1010.4
20260830230303 92 180 0.0 0.0 0.00 0.00 0.00 50 1010.3
20260830224804 93 173 0.0 0.0 0.00 0.00 0.00 48 1010.3
20260830224304 93 144 0.0 0.0 0.00 0.00 0.00 47 1010.3
20260830223803 93 128 0.0 0.0 0.00 0.00 0.00 49 1010.3
20260830223303 94 128 0.0 0.0 0.00 0.00 0.00 48 1010.3
20260830221804 94 171 0.0 0.0 0.00 0.00 0.00 46 1010.3
20260830221303 95 153 0.0 0.0 0.00 0.00 0.00 44 1010.3
20260830220803 94 180 0.0 0.0 0.00 0.00 0.00 44 1010.3